This demonstration page uses our WeatherBlox Daily Observations layout. Learn more.

Left ArrowRight Arrow

38.80484, -77.04692

Hourly Observations for October 23, 2019

Temp ( °F °C ) Dew Point ( °F °C ) Humidity (%) Winds ( mph kmh ) Pressure ( in mb ) Visibility ( mi km ) Precip ( " mm )
12:50 am 00:50 Clear with Mist and Fog 55 13 55 13 100 100 N 3 6 29.88 1012 2 2 0.00 0.00
12:52 am 00:52 Mostly Clear with Mist and Fog 55 12.8 54 12.2 96 96 Calm 29.86 1011 2 3 0.00 0.00
12:54 am 00:54 Mostly Cloudy with Mist and Fog 55 12.8 54 12.2 96 96 Calm 29.88 1012 1 1 0.00 0.00
1:09 am 01:09 Mostly Clear with Mist and Fog 54 12.2 53 11.7 97 97 Calm 29.88 1012 1 1 0.00 0.00
1:21 am 01:21 Mostly Clear with Mist and Fog 54 12.2 54 12.2 100 100 Calm 29.88 1012 1 2 0.00 0.00
1:37 am 01:37 Mostly Clear with Mist and Fog 54 12.2 53 11.7 97 97 Calm 29.88 1012 3 5 0.00 0.00
1:52 am 01:52 Mostly Clear with Mist and Fog 54 12.2 53 11.7 97 97 SW 3 6 29.88 1012 3 5 0.00 0.00
2:52 am 02:52 Mostly Clear 53 11.7 52 11.1 96 96 W 3 6 29.90 1012 10 16 0.00 0.00
3:52 am 03:52 Clear 53 11.7 52 11.1 96 96 SSW 5 7 29.91 1013 10 16 0.00 0.00
4:52 am 04:52 Clear 53 11.7 50 10 89 89 WSW 5 7 29.93 1014 10 16 0.00 0.00
5:52 am 05:52 Clear 52 11.1 49 9.4 89 89 Calm 29.96 1015 10 16 0.00 0.00
6:52 am 06:52 Mostly Clear 53 11.7 49 9.4 86 86 WSW 5 7 29.99 1016 10 16 0.00 0.00
7:52 am 07:52 Mostly Sunny 52 11.1 48 8.9 86 86 W 5 7 30.01 1016 10 16 0.00 0.00
8:52 am 08:52 Sunny 56 13.3 49 9.4 77 77 SW 3 6 30.04 1017 10 16 0.00 0.00
9:52 am 09:52 Sunny 60 15.6 49 9.4 67 67 WNW 7 11 30.06 1018 10 16 0.00 0.00
10:52 am 10:52 Sunny 62 16.7 48 8.9 60 60 WNW 12 19 30.08 1019 10 16 0.00 0.00
11:52 am 11:52 Mostly Sunny 63 17.2 42 5.6 47 47 NW 12 19 30.08 1019 10 16 0.00 0.00
12:52 pm 12:52 Mostly Sunny 64 17.8 39 3.9 40 40 WNW 13 20 30.07 1018 10 16 0.00 0.00
1:52 pm 13:52 Mostly Sunny 65 18.3 37 2.8 36 36 NW 9 15 30.06 1018 10 16 0.00 0.00
2:52 pm 14:52 Mostly Sunny 65 18.3 40 4.4 40 40 NW 17 28 30.07 1018 10 16 0.00 0.00
3:52 pm 15:52 Mostly Sunny 67 19.4 37 2.8 33 33 WNW 8 13 30.08 1019 10 16 0.00 0.00
4:52 pm 16:52 Mostly Sunny 67 19.4 36 2.2 32 32 W 9 15 30.09 1019 10 16 0.00 0.00
5:52 pm 17:52 Mostly Sunny 66 18.9 37 2.8 34 34 W 6 9 30.11 1020 10 16 0.00 0.00
6:52 pm 18:52 Mostly Clear 61 16.1 37 2.8 41 41 WNW 6 9 30.14 1021 10 16 0.00 0.00
7:52 pm 19:52 Mostly Clear 59 15 37 2.8 44 44 W 5 7 30.17 1022 10 16 0.00 0.00
8:52 pm 20:52 Mostly Clear 57 13.9 38 3.3 49 49 Calm 30.19 1023 10 16 0.00 0.00
9:52 pm 21:52 Mostly Clear 55 12.8 35 1.7 47 47 N 6 9 30.22 1023 10 16 0.00 0.00
10:52 pm 22:52 Clear 54 12 42 5.6 65 65 Calm 30.24 1024 10 16 0.00 0.00
11:31 pm 23:31 Clear 52 11.1 42 5.6 69 69 Calm 30.24 1024 10 16 0.00 0.00
11:52 pm 23:52 Clear 50 10 37 2.8 61 61 W 6 9 30.23 1024 10 16 0.00 0.00

Powered by AerisWeather